EZY3195 EGPF-EDDF

Flight info

Callsign EZY3195
Flight time 1h 42m
Altitude 33000
Route NORBO Y96 HAVEN DCT NATEB DCT GODOS DCT AMGOD DCT SOGPO DCT DIXAT DIXAT1D
Aircraft A21N/M-SDE3FGHIRWY/LB1

Departure

Time 2026-04-18 03:21
Airport Glasgow Airport (EGPF)

Arrival

Time 2026-04-18 05:03
Airport Frankfurt Main Airport (EDDF)
Time Latitude Longitude Altitude Speed Heading
2026-04-18 02:44 55.86659 -4.43138 22 ft 0 kts 74°
2026-04-18 03:11 55.86655 -4.43161 22 ft 1 kts 73°
2026-04-18 03:12 55.86652 -4.43179 22 ft 2 kts 61°
2026-04-18 03:12 55.86642 -4.43199 22 ft 2 kts 32°
2026-04-18 03:12 55.86627 -4.43209 22 ft 2 kts
2026-04-18 03:12 55.86616 -4.43208 22 ft 0 kts 346°
2026-04-18 03:13 55.86609 -4.43204 22 ft 0 kts 343°
2026-04-18 03:15 55.86610 -4.43204 22 ft 0 kts 343°
2026-04-18 03:16 55.86627 -4.43214 22 ft 4 kts 343°
2026-04-18 03:16 55.86681 -4.43242 22 ft 9 kts 343°
2026-04-18 03:16 55.86746 -4.43277 22 ft 10 kts 345°
2026-04-18 03:16 55.86809 -4.43233 22 ft 11 kts 59°
2026-04-18 03:17 55.86837 -4.43088 22 ft 12 kts 73°
2026-04-18 03:17 55.86880 -4.42953 22 ft 13 kts 36°
2026-04-18 03:17 55.86964 -4.42876 21 ft 13 kts 26°
2026-04-18 03:17 55.87055 -4.42807 21 ft 14 kts 20°
2026-04-18 03:18 55.87152 -4.42747 21 ft 15 kts 21°
2026-04-18 03:18 55.87254 -4.42673 21 ft 15 kts 22°
2026-04-18 03:18 55.87358 -4.42607 21 ft 15 kts 23°
2026-04-18 03:18 55.87445 -4.42481 20 ft 16 kts 45°
2026-04-18 03:19 55.87524 -4.42333 20 ft 16 kts 47°
2026-04-18 03:19 55.87605 -4.42180 20 ft 17 kts 47°
2026-04-18 03:19 55.87691 -4.42018 19 ft 17 kts 46°
2026-04-18 03:19 55.87780 -4.41879 18 ft 15 kts 28°
2026-04-18 03:20 55.87887 -4.41859 18 ft 15 kts 342°
2026-04-18 03:20 55.87906 -4.41976 18 ft 5 kts 197°
2026-04-18 03:20 55.87889 -4.42013 18 ft 11 kts 236°
2026-04-18 03:20 55.87641 -4.42486 20 ft 90 kts 225°
2026-04-18 03:21 55.87047 -4.43599 22 ft 155 kts 225°
2026-04-18 03:21 55.86244 -4.45111 512 ft 171 kts 228°
2026-04-18 03:21 55.85469 -4.46616 1471 ft 166 kts 229°
2026-04-18 03:21 55.84696 -4.48028 2358 ft 158 kts 228°
2026-04-18 03:22 55.83901 -4.49420 2888 ft 168 kts 228°
2026-04-18 03:22 55.83032 -4.50934 3332 ft 184 kts 229°
2026-04-18 03:22 55.82072 -4.52614 3752 ft 203 kts 229°
2026-04-18 03:22 55.81015 -4.54476 4134 ft 225 kts 229°
2026-04-18 03:23 55.79863 -4.56507 4692 ft 240 kts 228°
2026-04-18 03:23 55.78661 -4.58620 5419 ft 244 kts 228°
2026-04-18 03:23 55.77443 -4.60759 5856 ft 247 kts 228°
2026-04-18 03:23 55.76204 -4.62933 5972 ft 247 kts 228°
2026-04-18 03:24 55.74964 -4.65113 6013 ft 250 kts 227°
2026-04-18 03:24 55.73694 -4.67347 6562 ft 257 kts 227°
2026-04-18 03:24 55.72430 -4.69562 7520 ft 255 kts 227°
2026-04-18 03:24 55.71129 -4.71788 8373 ft 256 kts 226°
2026-04-18 03:25 55.69833 -4.74008 9162 ft 259 kts 228°
2026-04-18 03:25 55.68538 -4.76231 9899 ft 264 kts 218°
2026-04-18 03:25 55.66783 -4.77496 10512 ft 280 kts 192°
2026-04-18 03:25 55.64761 -4.77341 10881 ft 303 kts 174°
2026-04-18 03:26 55.62657 -4.76172 11197 ft 327 kts 158°
2026-04-18 03:26 55.60717 -4.73795 11520 ft 351 kts 139°
2026-04-18 03:26 55.59287 -4.70109 12060 ft 366 kts 115°
2026-04-18 03:26 55.58727 -4.65628 12804 ft 371 kts 96°
2026-04-18 03:27 55.58505 -4.61061 13524 ft 373 kts 96°
2026-04-18 03:27 55.58260 -4.56438 14188 ft 377 kts 97°
2026-04-18 03:27 55.57989 -4.51731 14850 ft 380 kts 97°
2026-04-18 03:27 55.57700 -4.46995 15496 ft 383 kts 98°
2026-04-18 03:28 55.57398 -4.42222 16133 ft 386 kts 98°
2026-04-18 03:28 55.57087 -4.37413 16763 ft 389 kts 98°
2026-04-18 03:28 55.56766 -4.32536 17374 ft 392 kts 99°
2026-04-18 03:28 55.56442 -4.27660 17987 ft 395 kts 99°
2026-04-18 03:29 55.56116 -4.22798 18566 ft 397 kts 99°
2026-04-18 03:29 55.55782 -4.17836 19118 ft 401 kts 99°
2026-04-18 03:29 55.55445 -4.12877 19675 ft 403 kts 100°
2026-04-18 03:29 55.55107 -4.07937 20229 ft 406 kts 100°
2026-04-18 03:30 55.54761 -4.02907 20751 ft 409 kts 100°
2026-04-18 03:30 55.54413 -3.97891 21272 ft 411 kts 100°
2026-04-18 03:30 55.54063 -3.92839 21770 ft 414 kts 100°
2026-04-18 03:30 55.53704 -3.87728 22267 ft 417 kts 101°
2026-04-18 03:31 55.53341 -3.82565 22734 ft 420 kts 101°
2026-04-18 03:31 55.52975 -3.77395 23190 ft 422 kts 101°
2026-04-18 03:31 55.52603 -3.72184 23633 ft 425 kts 101°
2026-04-18 03:31 55.52229 -3.66985 24062 ft 428 kts 101°
2026-04-18 03:32 55.51853 -3.61749 24469 ft 430 kts 101°
2026-04-18 03:32 55.51470 -3.56487 24857 ft 433 kts 101°
2026-04-18 03:32 55.51088 -3.51245 25227 ft 435 kts 101°
2026-04-18 03:32 55.50693 -3.45902 25595 ft 438 kts 101°
2026-04-18 03:33 55.50298 -3.40571 25928 ft 440 kts 102°
2026-04-18 03:33 55.49876 -3.35183 26258 ft 442 kts 103°
2026-04-18 03:33 55.49333 -3.29761 26564 ft 444 kts 105°
2026-04-18 03:33 55.48764 -3.24390 26881 ft 446 kts 106°
2026-04-18 03:34 55.48174 -3.18878 27190 ft 448 kts 106°
2026-04-18 03:34 55.47592 -3.13475 27482 ft 451 kts 106°
2026-04-18 03:34 55.47012 -3.08069 27767 ft 453 kts 107°
2026-04-18 03:34 55.46277 -3.02672 28055 ft 450 kts 112°
2026-04-18 03:35 55.45232 -2.97501 28305 ft 448 kts 118°
2026-04-18 03:35 55.43878 -2.92552 28570 ft 445 kts 124°
2026-04-18 03:35 55.42346 -2.87681 28842 ft 447 kts 126°
2026-04-18 03:35 55.40805 -2.82895 29089 ft 449 kts 126°
2026-04-18 03:36 55.39257 -2.78100 29401 ft 449 kts 126°
2026-04-18 03:36 55.37687 -2.73234 29768 ft 448 kts 126°
2026-04-18 03:36 55.36151 -2.68462 30112 ft 447 kts 126°
2026-04-18 03:36 55.34604 -2.63660 30420 ft 448 kts 126°
2026-04-18 03:37 55.33088 -2.58961 30670 ft 448 kts 126°
2026-04-18 03:37 55.31553 -2.54205 30952 ft 448 kts 126°
2026-04-18 03:37 55.30007 -2.49429 31179 ft 447 kts 126°
2026-04-18 03:37 55.28465 -2.44671 31375 ft 448 kts 126°
2026-04-18 03:38 55.26900 -2.39851 31545 ft 449 kts 126°
2026-04-18 03:38 55.25367 -2.35137 31694 ft 450 kts 126°
2026-04-18 03:38 55.23806 -2.30348 31856 ft 451 kts 126°
2026-04-18 03:38 55.22247 -2.25575 32018 ft 452 kts 126°
2026-04-18 03:39 55.20690 -2.20811 32157 ft 453 kts 126°
2026-04-18 03:39 55.19124 -2.16032 32299 ft 454 kts 126°
2026-04-18 03:39 55.17549 -2.11232 32425 ft 456 kts 126°
2026-04-18 03:39 55.15953 -2.06385 32563 ft 457 kts 126°
2026-04-18 03:40 55.14360 -2.01549 32704 ft 458 kts 126°
2026-04-18 03:40 55.12751 -1.96679 32836 ft 458 kts 126°
2026-04-18 03:40 55.11152 -1.91848 32959 ft 459 kts 126°
2026-04-18 03:40 55.09542 -1.86992 32990 ft 460 kts 126°
2026-04-18 03:41 55.06309 -1.77271 33012 ft 460 kts 126°
2026-04-18 03:41 55.03070 -1.67521 33032 ft 461 kts 125°
2026-04-18 03:42 54.99969 -1.57676 33028 ft 462 kts 124°
2026-04-18 03:42 54.96882 -1.47835 33038 ft 462 kts 124°
2026-04-18 03:43 54.93772 -1.37994 33039 ft 462 kts 124°
2026-04-18 03:43 54.90669 -1.28238 33040 ft 461 kts 125°
2026-04-18 03:44 54.87521 -1.18388 33040 ft 461 kts 125°
2026-04-18 03:44 54.84362 -1.08547 33047 ft 462 kts 125°
2026-04-18 03:45 54.81214 -0.98774 33043 ft 460 kts 125°
2026-04-18 03:45 54.78040 -0.88968 33049 ft 460 kts 126°
2026-04-18 03:46 54.74875 -0.79228 33050 ft 460 kts 126°
2026-04-18 03:46 54.71694 -0.69480 33051 ft 460 kts 126°
2026-04-18 03:47 54.68485 -0.59685 33057 ft 461 kts 126°
2026-04-18 03:47 54.65285 -0.49953 33051 ft 460 kts 126°
2026-04-18 03:48 54.62088 -0.40273 33059 ft 460 kts 126°
2026-04-18 03:48 54.58899 -0.30651 33057 ft 459 kts 127°
2026-04-18 03:49 54.55687 -0.20999 33062 ft 458 kts 127°
2026-04-18 03:49 54.52488 -0.11423 33066 ft 458 kts 127°
2026-04-18 03:50 54.49245 -0.01761 33070 ft 459 kts 127°
2026-04-18 03:50 54.45987 0.07913 33062 ft 459 kts 127°
2026-04-18 03:51 54.42722 0.17569 33071 ft 458 kts 127°
2026-04-18 03:51 54.39462 0.27173 33077 ft 458 kts 127°
2026-04-18 03:52 54.36180 0.36805 33084 ft 458 kts 127°
2026-04-18 03:52 54.32922 0.46325 33079 ft 457 kts 127°
2026-04-18 03:53 54.29657 0.55836 33094 ft 457 kts 127°
2026-04-18 03:53 54.26333 0.65469 33075 ft 458 kts 128°
2026-04-18 03:54 54.23008 0.75077 33091 ft 457 kts 128°
2026-04-18 03:54 54.19710 0.84570 33099 ft 456 kts 128°
2026-04-18 03:55 54.16439 0.93946 33103 ft 456 kts 128°
2026-04-18 03:55 54.13147 1.03344 33106 ft 456 kts 129°
2026-04-18 03:56 54.09864 1.12681 33109 ft 456 kts 128°
2026-04-18 03:56 54.06560 1.22045 33114 ft 455 kts 128°
2026-04-18 03:57 54.01506 1.36301 33104 ft 456 kts 129°
2026-04-18 03:58 53.98146 1.45730 33096 ft 455 kts 129°
2026-04-18 03:58 53.94737 1.55263 33088 ft 455 kts 129°
2026-04-18 03:59 53.91364 1.64664 33087 ft 455 kts 129°
2026-04-18 03:59 53.87951 1.74132 33089 ft 454 kts 129°
2026-04-18 04:00 53.84622 1.83336 33089 ft 455 kts 130°
2026-04-18 04:00 53.81208 1.92734 33096 ft 455 kts 129°
2026-04-18 04:01 53.77834 2.01994 33086 ft 454 kts 129°
2026-04-18 04:01 53.74425 2.11314 33092 ft 455 kts 129°
2026-04-18 04:02 53.71018 2.20593 33100 ft 455 kts 129°
2026-04-18 04:02 53.67604 2.29855 33096 ft 456 kts 129°
2026-04-18 04:03 53.64127 2.39255 33102 ft 456 kts 129°
2026-04-18 04:03 53.60675 2.48555 33103 ft 456 kts 129°
2026-04-18 04:04 53.57220 2.57826 33109 ft 457 kts 129°
2026-04-18 04:04 53.53768 2.67056 33109 ft 456 kts 130°
2026-04-18 04:05 53.50325 2.76227 33115 ft 454 kts 130°
2026-04-18 04:05 53.46804 2.85569 33115 ft 456 kts 130°
2026-04-18 04:06 53.43288 2.94867 33120 ft 455 kts 130°
2026-04-18 04:06 53.39830 3.03977 33123 ft 456 kts 130°
2026-04-18 04:07 53.36330 3.13164 33122 ft 456 kts 130°
2026-04-18 04:07 53.32790 3.22420 33128 ft 456 kts 130°
2026-04-18 04:08 53.29238 3.31557 33125 ft 454 kts 132°
2026-04-18 04:08 53.25051 3.39916 33128 ft 443 kts 142°
2026-04-18 04:09 53.20220 3.46812 33127 ft 435 kts 151°
2026-04-18 04:09 53.14928 3.52259 33128 ft 429 kts 158°
2026-04-18 04:10 53.09508 3.57334 33130 ft 429 kts 157°
2026-04-18 04:10 53.04133 3.62491 33129 ft 433 kts 154°
2026-04-18 04:11 52.99187 3.68720 33138 ft 442 kts 146°
2026-04-18 04:11 52.94923 3.76180 33144 ft 452 kts 136°
2026-04-18 04:12 52.91486 3.84412 33146 ft 459 kts 129°
2026-04-18 04:12 52.88097 3.93452 33144 ft 460 kts 129°
2026-04-18 04:13 52.84710 4.02459 33137 ft 460 kts 129°
2026-04-18 04:13 52.81350 4.11339 33136 ft 461 kts 129°
2026-04-18 04:14 52.77938 4.20311 33138 ft 461 kts 129°
2026-04-18 04:14 52.75011 4.27980 33140 ft 460 kts 129°
2026-04-18 04:15 52.71573 4.36948 33141 ft 461 kts 128°
2026-04-18 04:15 52.68161 4.45817 33148 ft 461 kts 129°
2026-04-18 04:16 52.64693 4.54802 33147 ft 461 kts 128°
2026-04-18 04:16 52.61377 4.63361 33150 ft 462 kts 128°
2026-04-18 04:17 52.58565 4.70594 33150 ft 461 kts 129°
2026-04-18 04:17 52.55145 4.79368 33155 ft 462 kts 129°
2026-04-18 04:18 52.51664 4.88272 33157 ft 462 kts 129°
2026-04-18 04:18 52.50557 4.91094 33162 ft 462 kts 129°
2026-04-18 04:19 52.44812 5.05709 33159 ft 462 kts 129°
2026-04-18 04:19 52.41374 5.14411 33157 ft 462 kts 128°
2026-04-18 04:20 52.37882 5.23220 33152 ft 462 kts 128°
2026-04-18 04:20 52.34432 5.31903 33156 ft 462 kts 128°
2026-04-18 04:21 52.30925 5.40684 33154 ft 462 kts 128°
2026-04-18 04:21 52.27336 5.49645 33155 ft 462 kts 128°
2026-04-18 04:22 52.23803 5.58435 33152 ft 463 kts 128°
2026-04-18 04:22 52.20262 5.67216 33149 ft 463 kts 128°
2026-04-18 04:23 52.16921 5.75473 33154 ft 463 kts 129°
2026-04-18 04:23 52.13344 5.84285 33155 ft 463 kts 129°
2026-04-18 04:24 52.09811 5.92952 33155 ft 463 kts 128°
2026-04-18 04:24 52.06233 6.01709 33158 ft 463 kts 128°
2026-04-18 04:25 52.02708 6.10300 33150 ft 464 kts 128°
2026-04-18 04:25 51.99186 6.18548 33151 ft 462 kts 131°
2026-04-18 04:26 51.95078 6.26318 33149 ft 458 kts 138°
2026-04-18 04:26 51.90361 6.33353 33152 ft 454 kts 145°
2026-04-18 04:27 51.85730 6.39377 33158 ft 454 kts 145°
2026-04-18 04:27 51.80703 6.45917 33167 ft 454 kts 145°
2026-04-18 04:28 51.75956 6.52086 33169 ft 455 kts 145°
2026-04-18 04:28 51.71111 6.58364 33171 ft 456 kts 145°
2026-04-18 04:29 51.66103 6.64836 33170 ft 457 kts 145°
2026-04-18 04:29 51.61187 6.71173 33171 ft 457 kts 146°
2026-04-18 04:30 51.57064 6.76474 33170 ft 457 kts 145°
2026-04-18 04:30 51.52153 6.82773 33170 ft 457 kts 145°
2026-04-18 04:31 51.48042 6.88030 33170 ft 457 kts 145°
2026-04-18 04:31 51.43968 6.93225 33171 ft 457 kts 145°
2026-04-18 04:31 51.41532 6.96329 32938 ft 458 kts 145°
2026-04-18 04:32 51.38975 6.99581 32497 ft 456 kts 145°
2026-04-18 04:32 51.36848 7.02282 32015 ft 454 kts 145°
2026-04-18 04:32 51.34678 7.05034 31452 ft 453 kts 145°
2026-04-18 04:32 51.32186 7.08188 30759 ft 453 kts 144°
2026-04-18 04:33 51.29699 7.11292 30038 ft 453 kts 146°
2026-04-18 04:33 51.27121 7.14176 29297 ft 453 kts 149°
2026-04-18 04:33 51.24424 7.16796 28568 ft 452 kts 153°
2026-04-18 04:33 51.21657 7.19107 28080 ft 445 kts 156°
2026-04-18 04:34 51.18873 7.21312 27597 ft 440 kts 156°
2026-04-18 04:34 51.16099 7.23509 27099 ft 435 kts 156°
2026-04-18 04:34 51.13391 7.25652 26615 ft 431 kts 156°
2026-04-18 04:34 51.10724 7.27776 26134 ft 428 kts 155°
2026-04-18 04:35 51.08077 7.29949 25645 ft 425 kts 155°
2026-04-18 04:35 51.05464 7.32114 25159 ft 421 kts 155°
2026-04-18 04:35 51.02855 7.34273 24607 ft 420 kts 155°
2026-04-18 04:35 51.00238 7.36433 24000 ft 420 kts 155°
2026-04-18 04:36 50.97607 7.38600 23472 ft 418 kts 155°
2026-04-18 04:36 50.94980 7.40761 22958 ft 416 kts 155°
2026-04-18 04:36 50.92403 7.42876 22469 ft 414 kts 155°
2026-04-18 04:36 50.89835 7.44981 21981 ft 411 kts 155°
2026-04-18 04:37 50.87308 7.47051 21489 ft 409 kts 155°
2026-04-18 04:37 50.84753 7.49139 21000 ft 406 kts 155°
2026-04-18 04:37 50.82274 7.51163 20529 ft 403 kts 155°
2026-04-18 04:37 50.79732 7.53236 20032 ft 401 kts 154°
2026-04-18 04:38 50.77285 7.55230 19561 ft 398 kts 154°
2026-04-18 04:38 50.74809 7.57243 19084 ft 396 kts 154°
2026-04-18 04:38 50.72334 7.59255 18608 ft 393 kts 154°
2026-04-18 04:38 50.69919 7.61215 18143 ft 391 kts 154°
2026-04-18 04:39 50.67466 7.63204 17658 ft 389 kts 154°
2026-04-18 04:39 50.65112 7.65111 17189 ft 387 kts 155°
2026-04-18 04:39 50.62720 7.67045 16732 ft 384 kts 155°
2026-04-18 04:39 50.60349 7.68958 16261 ft 382 kts 155°
2026-04-18 04:40 50.58028 7.70832 15997 ft 374 kts 155°
2026-04-18 04:40 50.55687 7.72719 15619 ft 373 kts 155°
2026-04-18 04:40 50.53373 7.74580 15139 ft 372 kts 155°
2026-04-18 04:40 50.51073 7.76429 14669 ft 370 kts 155°
2026-04-18 04:41 50.48796 7.78258 14202 ft 368 kts 155°
2026-04-18 04:41 50.46507 7.80094 13737 ft 366 kts 155°
2026-04-18 04:41 50.44272 7.82011 13278 ft 365 kts 151°
2026-04-18 04:41 50.42146 7.84213 12937 ft 360 kts 146°
2026-04-18 04:42 50.40138 7.86643 12958 ft 362 kts 143°
2026-04-18 04:42 50.38151 7.89114 12979 ft 362 kts 143°
2026-04-18 04:42 50.36166 7.91587 12989 ft 361 kts 143°
2026-04-18 04:42 50.34187 7.94048 12725 ft 356 kts 143°
2026-04-18 04:43 50.32223 7.96484 12285 ft 354 kts 143°
2026-04-18 04:43 50.30275 7.98894 12162 ft 356 kts 143°
2026-04-18 04:43 50.28302 8.01328 12163 ft 357 kts 143°
2026-04-18 04:43 50.26317 8.03774 12159 ft 357 kts 143°
2026-04-18 04:44 50.24372 8.06173 12161 ft 356 kts 143°
2026-04-18 04:44 50.22387 8.08622 12161 ft 356 kts 143°
2026-04-18 04:44 50.20417 8.11048 12161 ft 356 kts 143°
2026-04-18 04:44 50.18451 8.13465 12162 ft 357 kts 143°
2026-04-18 04:45 50.16483 8.15883 12158 ft 357 kts 143°
2026-04-18 04:45 50.14604 8.18188 12174 ft 357 kts 143°
2026-04-18 04:45 50.12626 8.20612 12185 ft 357 kts 143°
2026-04-18 04:45 50.10753 8.22905 12180 ft 357 kts 143°
2026-04-18 04:46 50.08785 8.25350 12170 ft 357 kts 141°
2026-04-18 04:46 50.06963 8.28027 12168 ft 358 kts 134°
2026-04-18 04:46 50.05347 8.30959 12163 ft 358 kts 129°
2026-04-18 04:46 50.03822 8.34005 12160 ft 358 kts 128°
2026-04-18 04:47 50.02283 8.37127 12160 ft 358 kts 128°
2026-04-18 04:47 50.00756 8.40214 12159 ft 358 kts 128°
2026-04-18 04:47 49.99232 8.43276 12162 ft 358 kts 128°
2026-04-18 04:47 49.97702 8.46333 12160 ft 358 kts 129°
2026-04-18 04:48 49.96156 8.49420 12160 ft 358 kts 128°
2026-04-18 04:48 49.94897 8.52768 12135 ft 359 kts 108°
2026-04-18 04:48 49.94646 8.56650 12151 ft 360 kts 83°
2026-04-18 04:48 49.95344 8.60374 12166 ft 360 kts 68°
2026-04-18 04:49 49.96274 8.64008 12140 ft 360 kts 67°
2026-04-18 04:49 49.97192 8.67624 12155 ft 360 kts 69°
2026-04-18 04:49 49.98056 8.71123 12159 ft 360 kts 69°
2026-04-18 04:50 49.99814 8.78458 12123 ft 346 kts 69°
2026-04-18 04:50 50.00569 8.81645 12138 ft 330 kts 69°
2026-04-18 04:50 50.01281 8.84659 12138 ft 314 kts 70°
2026-04-18 04:50 50.01924 8.87383 12136 ft 301 kts 69°
2026-04-18 04:51 50.02616 8.90320 12033 ft 295 kts 70°
2026-04-18 04:51 50.03328 8.93328 11609 ft 296 kts 70°
2026-04-18 04:51 50.04040 8.96332 11227 ft 294 kts 70°
2026-04-18 04:51 50.04751 8.99338 10875 ft 292 kts 70°
2026-04-18 04:52 50.05460 9.02359 10513 ft 290 kts 70°
2026-04-18 04:52 50.06144 9.05280 10169 ft 287 kts 70°
2026-04-18 04:52 50.06834 9.08235 9818 ft 285 kts 71°
2026-04-18 04:52 50.07506 9.11117 9461 ft 283 kts 71°
2026-04-18 04:53 50.08182 9.14026 9088 ft 282 kts 71°
2026-04-18 04:53 50.08852 9.16907 8624 ft 277 kts 70°
2026-04-18 04:53 50.09503 9.19711 7948 ft 279 kts 70°
2026-04-18 04:53 50.10167 9.22577 7302 ft 277 kts 70°
2026-04-18 04:54 50.10893 9.25342 6683 ft 274 kts 58°
2026-04-18 04:54 50.12203 9.27438 6093 ft 272 kts 29°
2026-04-18 04:54 50.13980 9.28287 5722 ft 266 kts
2026-04-18 04:54 50.15759 9.27736 5352 ft 262 kts 332°
2026-04-18 04:55 50.17144 9.25927 4949 ft 260 kts 303°
2026-04-18 04:55 50.17883 9.23353 4576 ft 258 kts 287°
2026-04-18 04:55 50.18397 9.20646 4209 ft 257 kts 285°
2026-04-18 04:56 50.17883 9.15315 3971 ft 257 kts 247°
2026-04-18 04:56 50.17182 9.12737 3967 ft 258 kts 246°
2026-04-18 04:56 50.16488 9.10138 3964 ft 258 kts 247°
2026-04-18 04:56 50.15813 9.07536 3963 ft 258 kts 248°
2026-04-18 04:57 50.15150 9.04912 3962 ft 258 kts 249°
2026-04-18 04:57 50.14516 9.02353 3953 ft 247 kts 249°
2026-04-18 04:57 50.13915 8.99889 3946 ft 233 kts 249°
2026-04-18 04:57 50.13350 8.97556 3958 ft 232 kts 250°
2026-04-18 04:58 50.12774 8.95170 3960 ft 232 kts 250°
2026-04-18 04:58 50.12209 8.92823 3962 ft 231 kts 250°
2026-04-18 04:58 50.11648 8.90490 3962 ft 231 kts 250°
2026-04-18 04:58 50.11076 8.88115 3962 ft 231 kts 250°
2026-04-18 04:59 50.10518 8.85793 3908 ft 232 kts 249°
2026-04-18 04:59 50.09948 8.83424 3655 ft 231 kts 249°
2026-04-18 04:59 50.09387 8.81093 3344 ft 230 kts 249°
2026-04-18 04:59 50.08839 8.78814 3031 ft 219 kts 250°
2026-04-18 05:00 50.08316 8.76640 2743 ft 208 kts 250°
2026-04-18 05:00 50.07831 8.74626 2565 ft 193 kts 250°
2026-04-18 05:00 50.07368 8.72698 2285 ft 186 kts 250°
2026-04-18 05:00 50.06931 8.70877 2052 ft 172 kts 250°
2026-04-18 05:01 50.06526 8.69189 1784 ft 159 kts 250°
2026-04-18 05:01 50.06195 8.67810 1570 ft 147 kts 251°
2026-04-18 05:01 50.05839 8.66321 1397 ft 146 kts 251°
2026-04-18 05:01 50.05481 8.64826 1217 ft 145 kts 251°
2026-04-18 05:02 50.05127 8.63349 1029 ft 144 kts 250°
2026-04-18 05:02 50.04767 8.61847 830 ft 143 kts 251°
2026-04-18 05:02 50.04413 8.60350 621 ft 142 kts 251°
2026-04-18 05:02 50.04060 8.58880 434 ft 142 kts 251°
2026-04-18 05:03 50.03724 8.57472 357 ft 127 kts 250°
2026-04-18 05:03 50.03475 8.56429 348 ft 77 kts 251°
2026-04-18 05:03 50.03340 8.55858 345 ft 37 kts 249°
2026-04-18 05:03 50.03312 8.55536 343 ft 27 kts 275°
2026-04-18 05:04 50.03334 8.55306 342 ft 17 kts 281°
2026-04-18 05:04 50.03357 8.55114 342 ft 17 kts 281°
2026-04-18 05:04 50.03397 8.54951 341 ft 15 kts 296°
2026-04-18 05:04 50.03467 8.54838 342 ft 14 kts 335°
2026-04-18 05:05 50.03561 8.54785 342 ft 14 kts 340°
2026-04-18 05:05 50.03654 8.54732 343 ft 14 kts 340°
2026-04-18 05:05 50.03742 8.54722 343 ft 13 kts 36°
2026-04-18 05:05 50.03784 8.54839 344 ft 12 kts 69°
2026-04-18 05:06 50.03813 8.54963 345 ft 12 kts 70°
2026-04-18 05:06 50.03842 8.55086 345 ft 12 kts 70°
2026-04-18 05:06 50.03873 8.55212 346 ft 12 kts 70°
2026-04-18 05:06 50.03903 8.55336 347 ft 12 kts 70°
2026-04-18 05:07 50.03933 8.55466 348 ft 13 kts 70°
2026-04-18 05:07 50.03967 8.55608 348 ft 14 kts 70°
2026-04-18 05:07 50.04002 8.55752 349 ft 14 kts 70°
2026-04-18 05:07 50.04037 8.55901 350 ft 15 kts 70°
2026-04-18 05:08 50.04075 8.56059 350 ft 16 kts 70°
2026-04-18 05:08 50.04116 8.56226 351 ft 16 kts 69°
2026-04-18 05:08 50.04158 8.56401 352 ft 18 kts 71°
2026-04-18 05:08 50.04201 8.56587 354 ft 18 kts 70°
2026-04-18 05:09 50.04245 8.56769 355 ft 17 kts 69°
2026-04-18 05:09 50.04285 8.56942 356 ft 16 kts 70°
2026-04-18 05:09 50.04326 8.57107 358 ft 15 kts 70°
2026-04-18 05:09 50.04362 8.57264 359 ft 15 kts 70°
2026-04-18 05:10 50.04400 8.57419 360 ft 15 kts 69°
2026-04-18 05:10 50.04438 8.57575 361 ft 15 kts 69°
2026-04-18 05:10 50.04450 8.57626 362 ft 0 kts 69°
2026-04-18 05:10 50.04453 8.57635 362 ft 1 kts 69°
2026-04-18 05:11 50.04457 8.57652 362 ft 2 kts 69°
2026-04-18 05:11 50.04462 8.57674 362 ft 2 kts 69°
2026-04-18 05:11 50.04468 8.57697 362 ft 2 kts 69°
2026-04-18 05:11 50.04484 8.57764 363 ft 13 kts 70°
2026-04-18 05:12 50.04517 8.57909 364 ft 13 kts 70°
2026-04-18 05:12 50.04556 8.58022 365 ft 11 kts 32°
2026-04-18 05:12 50.04635 8.58003 365 ft 12 kts 338°
2026-04-18 05:12 50.04688 8.57970 365 ft 0 kts 338°
2026-04-18 05:15 50.04700 8.57962 365 ft 4 kts 339°
2026-04-18 05:16 50.04739 8.57953 365 ft 3 kts
2026-04-18 05:16 50.04759 8.57963 365 ft 3 kts 24°
2026-04-18 05:16 50.04780 8.57987 365 ft 4 kts 46°
2026-04-18 05:16 50.04797 8.58032 365 ft 5 kts 68°
2026-04-18 05:17 50.04813 8.58096 366 ft 7 kts 70°
2026-04-18 05:17 50.04832 8.58178 366 ft 8 kts 70°
2026-04-18 05:17 50.04853 8.58267 367 ft 7 kts 69°
2026-04-18 05:17 50.04857 8.58310 367 ft 3 kts 114°
2026-04-18 05:18 50.04840 8.58330 368 ft 3 kts 161°
2026-04-18 05:18 50.04817 8.58342 368 ft 3 kts 162°
2026-04-18 05:18 50.04796 8.58354 368 ft 3 kts 160°
2026-04-18 05:18 50.04781 8.58362 368 ft 0 kts 159°
2026-04-18 05:52 50.04787 8.58358 368 ft 2 kts 159°
2026-04-18 05:52 50.04801 8.58350 368 ft 2 kts 159°
2026-04-18 05:53 50.04815 8.58342 367 ft 2 kts 159°
2026-04-18 05:53 50.04825 8.58336 367 ft 0 kts 159°
2026-04-18 05:53 50.04838 8.58326 367 ft 2 kts 138°
2026-04-18 05:53 50.04847 8.58308 367 ft 2 kts 120°
2026-04-18 05:54 50.04853 8.58286 367 ft 2 kts 98°